Powrót do katalogu

STARLINK-3398

AktywnyŁącznośćVLEO
NORAD 51120·PAYLOAD·🇺🇸 United States

Wystrzelony Jan 19, 2022 z Cape Canaveral Space Force Station

Loading…

Następne Przeloty (najbliższe 24 godziny)

TLE

ŚwieżeSource: CelesTrak SupGP

Epoka: Sep 14, 2026, 21:41 UTC

1 51120C 22005S   26257.90395833 -.00028961  00000+0 -85598-3 0  2572
2 51120  53.1578 151.8244 0001233  90.4503  44.0952 15.34393043    15

Śledź STARLINK-3398 w czasie rzeczywistym z AllMySat

Download on the App Store